Forside
METAR-TAF:

METAR-TAF

Lufthavne :

Ludington, Michigan, USA

Breddekreds: 43-58N, længdekreds: 086-24W, højde: 197 m

Aktuelle vejr

Denne rapport blev lavet for 26 minutter siden, kl. 11:35 UTC
Vind stille
Temperatur 13°C
Fugtighed 100%
Tryk 1020 hPa
Sigt: 4.0 km
skyfri
dis

METAR: KLDM 121135Z AUTO 00000KT 2 1/2SM BR CLR 13/13 A3011 RMK AO2 T01280125

Tid: 08:01 (12:01 UTC)


TAF: fraværende

Vejrobservationer og prognoser fra mere end 4000 lufthavne (METAR og TAF).

De gule og røde prikker repræsenterer de meteorologiske stationer.

Flyt musen over at se navnet på stationen.

Så klik over at se vejr observationer og prognoser.

At skifte det kort: Klik på de grønne knapper med et sort kors for at zoome ind; på den grønne knap med en bindestreg for at zoome ud; eller på de grønne pile for tilstødende kort.


METAR-TAF: